This demonstration page uses our WeatherBlox Daily Observations layout. Learn more.

Left ArrowRight Arrow

39.08367, -84.50855

Hourly Observations for April 11, 2015

Temp ( °F °C ) Dew Point ( °F °C ) Humidity (%) Winds ( mph kmh ) Pressure ( in mb ) Visibility ( mi km ) Precip ( " mm )
12:53 am 00:53 Clear 53 11.7 35 1.7 51 51 NNW 14 22 30.12 1020 10 16 N/A
1:53 am 01:53 Clear 49 9.4 31 -0.6 50 50 NW 10 17 30.17 1022 10 16 N/A
2:53 am 02:53 Clear 47 8.3 33 0.6 59 59 NNW 7 11 30.18 1022 10 16 N/A
3:53 am 03:53 Clear 44 6.7 34 1.1 68 68 NNW 5 7 30.19 1022 10 16 N/A
4:53 am 04:53 Clear 43 6.1 35 1.7 74 74 NNW 7 11 30.20 1023 10 16 N/A
5:53 am 05:53 Clear 43 6.1 36 2.2 76 76 N N/A 30.23 1024 10 16 N/A
6:53 am 06:53 Clear 42 5.6 36 2.2 79 79 N N/A 30.26 1025 10 16 N/A
7:53 am 07:53 Sunny 41 5 36 2.2 82 82 N N/A 30.28 1025 10 16 N/A
8:53 am 08:53 Sunny 46 7.8 38 3.3 73 73 NE 3 6 30.29 1026 10 16 N/A
9:53 am 09:53 Sunny 47 8.3 38 3.3 71 71 N N/A 30.31 1026 10 16 N/A
10:53 am 10:53 Sunny 50 10 37 2.8 61 61 N N/A 30.32 1027 10 16 N/A
11:53 am 11:53 Sunny 54 12.2 33 0.6 45 45 NE 8 13 30.32 1027 10 16 N/A
12:53 pm 12:53 Sunny 56 13.3 36 2.2 47 47 NNE 6 9 30.30 1026 10 16 N/A
1:53 pm 13:53 Sunny 57 13.9 34 1.1 42 42 N N/A 30.29 1026 10 16 N/A
2:53 pm 14:53 Sunny 59 15 34 1.1 39 39 VRB 6 9 30.27 1025 10 16 N/A
3:53 pm 15:53 Sunny 59 15 35 1.7 41 41 N N/A 30.24 1024 10 16 N/A
4:53 pm 16:53 Sunny 60 15.6 34 1.1 38 38 WSW 6 9 30.24 1024 10 16 N/A
5:53 pm 17:53 Sunny 61 16.1 33 0.6 35 35 W 3 6 30.23 1024 10 16 N/A
6:53 pm 18:53 Sunny 61 16.1 32 undefined 34 34 N N/A 30.22 1024 10 16 N/A
7:53 pm 19:53 Sunny 59 15 30 -1.1 33 33 NNE 3 6 30.22 1024 10 16 N/A
8:53 pm 20:53 Clear 52 11.1 39 3.9 61 61 N N/A 30.24 1024 10 16 N/A
9:53 pm 21:53 Clear 50 10 40 4.4 68 68 N N/A 30.25 1025 10 16 N/A
10:53 pm 22:53 Clear 47 8.3 42 5.6 83 83 N N/A 30.25 1024 10 16 N/A
11:53 pm 23:53 Clear 46 7.8 40 4.4 79 79 N N/A 30.25 1024 10 16 N/A

Powered by AerisWeather